Flag for U.S.A. Weather past 2 weeks in Oxnard, California, U.S.A.

Now
66 °F

Clear.


Feels Like: 66 °F
Forecast: 65 / 76 °F
Wind: 8 mph from West

Location: Oxnard Airport

Current Time: Jul 28, 2014 at 10:30:47 PM

Latest Report: Jul 28, 2014 at 9:51 PM


Visibility: 9 mi

Pressure: 30.03 "Hg

Humidity: 87%

Dew point: 62 °F

Location of OxnardLocation

Historic Weather in Oxnard — Graph

°F

Oxnard temperature yesterday

Maximum temperature yesterday: 74 °F (at 4:51 PM)
Minimum temperature yesterday: 64 °F (at 5:51 AM)
Average temperature yesterday: 68 °F

Past Weeks' High & Low Weather Summary

 TemperatureHumidityPressure
High77 °F (Jul 24, 2:51 PM)100% (Jul 26, 3:00 AM)30.07 "Hg (Jul 26, 3:00 AM)
Low61 °F (Jul 22, 5:51 AM)54% (Jul 21, 1:51 PM)29.75 "Hg (Jul 24, 5:51 PM)
Average68 °F78%29.96 "Hg
* Reported Jul 13 8:51 PM — Jul 28 8:51 PM, Oxnard, Weather by CustomWeather, © 2014

Note: Actual official high and low records may vary slightly from our data, if they occured in-between our weather recording intervals... More about our weather records

Advertising

Oxnard weather history for previous 24 hours

 ConditionsComfort  
Time TempWeatherWind HumidityBarometerVisibility
8:51 PM
Jul 28
66 °FSunny.10 mph87%30.02 "Hg9 mi
7:51 PM68 °FSunny.10 mph82%30.01 "Hg10 mi
6:51 PM70 °FSunny.13 mph79%30.00 "Hg8 mi
5:51 PM70 °FSunny.10 mph81%30.00 "Hg8 mi
4:51 PM73 °FSunny.9 mph74%30.01 "Hg9 mi
3:51 PM74 °FSunny.9 mph71%30.02 "Hg9 mi
2:51 PM75 °FSunny.9 mph64%30.03 "Hg10 mi
1:51 PM73 °FSunny.9 mph74%30.04 "Hg10 mi
12:51 PM74 °FPartly sunny.8 mph69%30.05 "Hg9 mi
11:51 AM74 °FPartly sunny.5 mph71%30.06 "Hg8 mi
10:51 AM72 °FPartly sunny.3 mph76%30.06 "Hg9 mi
9:51 AM71 °FPartly sunny.3 mph76%30.06 "Hg8 mi
8:51 AM69 °FPartly sunny.No wind81%30.06 "Hg7 mi
7:51 AM67 °FFog.No wind90%30.05 "Hg5 mi
6:51 AM65 °FFog.No wind94%30.03 "Hg5 mi
5:51 AM66 °FClear.No wind87%30.02 "Hg7 mi
4:51 AM65 °FFog.5 mph91%30.02 "Hg6 mi
3:51 AM66 °FPassing clouds.No wind87%30.01 "Hg7 mi
2:51 AM66 °FClear.No wind87%30.00 "Hg8 mi
1:51 AM65 °FClear.No wind94%30.00 "Hg8 mi
12:51 AM65 °FClear.3 mph91%29.98 "Hg7 mi
11:51 PM
Jul 27
65 °FClear.5 mph91%29.98 "Hg8 mi
10:51 PM66 °FClear.9 mph87%29.96 "Hg10 mi
Weather by CustomWeather, © 2014

See weather overviewHow to use our weather pages